[[{"header":{"parameterUnit":"m.s-1","parameterCategory":1,"la1":30.2991,"la2":30.254,"lo1":-89.0895,"lo2":-89.0444,"dy":0.0017,"dx":0.0017,"nx":28,"ny":28,"refTime":"2024-05-24T09:00:00:Z","depth":0,"parameterNumber":2,"parameterNumberName":"U-component_of_WINDS"},"data":[0,0,0,0,0,0,0,0,0,0,0,0,0,0,0,0,0,0,0,0,0,0,0,0,0,0,0,0,0,0,0,0,0,0,0,0,0,0,0,0,0,0,0,0,0,0,0,0,0,0,0,0,0,0,0,0,0,0,-1.1281,-1.128,0,-1.1243,-1.1243,-1.1242,-1.1238,-1.1239,-1.1239,-1.1239,-1.12,-1.1199,-1.1198,0,0,0,0,0,0,0,0,0,0,0,0,0,-1.135,-1.1349,-1.1281,-1.128,-1.128,-1.1243,-1.1243,-1.1242,-1.1238,-1.1239,-1.1239,-1.124,-1.1201,-1.1199,-1.1197,0,0,0,0,0,0,0,0,0,0,0,0,0,-1.1317,-1.1349,-1.1281,-1.1274,-1.1273,-1.1243,-1.1243,-1.1242,-1.1238,-1.1239,-1.1239,-1.124,-1.1201,-1.1199,-1.1197,-1.1173,0,0,-1.1191,-1.119,0,0,0,0,0,0,0,0,-1.1319,-1.1315,-1.1275,-1.1274,-1.1273,-1.1246,-1.1253,-1.1219,-1.1238,-1.1251,-1.124,-1.124,-1.1215,-1.1212,-1.1203,-1.1171,-1.1169,-1.1191,-1.1189,-1.1188,-1.1188,0,0,0,0,0,0,0,-1.1321,-1.1316,-1.1266,-1.1275,-1.1273,-1.1272,-1.1268,-1.1246,-1.123,-1.125,-1.125,-1.1245,-1.1215,-1.1206,-1.1203,-1.1168,-1.1191,-1.1189,-1.1187,-1.1187,-1.1115,-1.1114,0,0,0,0,0,0,-1.1325,-1.1318,-1.1267,-1.1265,-1.1298,-1.1271,-1.1266,-1.1254,-1.1231,-1.1228,-1.1245,-1.1245,-1.1209,-1.1205,-1.1201,-1.1171,-1.1188,-1.1186,-1.1185,-1.1115,-1.1115,-1.1114,0,0,0,0,0,0,-1.1327,-1.132,-1.1269,-1.1291,-1.1285,-1.1269,-1.1255,-1.1253,-1.1244,-1.1227,-1.1224,-1.1239,-1.1209,-1.1204,-1.118,-1.117,-1.1186,-1.1184,-1.1116,-1.1115,-1.1114,-1.1111,0,0,0,0,0,0,-1.1329,-1.1321,-1.1311,-1.1291,-1.1284,-1.1248,-1.1255,-1.1252,-1.124,-1.1241,-1.122,-1.1217,-1.1209,-1.1183,-1.1178,-1.1167,-1.1182,-1.1117,-1.1116,-1.1115,-1.1112,-1.111,-1.1108,0,0,0,0,0,-1.1331,-1.1311,-1.1311,-1.1305,-1.1271,-1.1247,-1.1243,-1.1234,-1.124,-1.123,-1.1219,-1.1218,-1.1172,-1.1181,-1.1175,-1.1163,-1.1118,-1.1116,-1.1115,-1.1112,-1.111,-1.1108,0,0,0,0,0,0,-1.133,-1.1309,-1.1308,-1.1281,-1.1266,-1.1247,-1.1234,-1.1232,-1.1215,-1.1216,-1.1206,-1.1202,-1.1178,-1.1168,-1.1178,-1.1139,-1.1145,-1.1143,-1.1146,-1.1143,-1.1142,-1.1144,-1.118,0,0,0,0,0,-1.1327,-1.1309,-1.1292,-1.127,-1.1262,-1.125,-1.1239,-1.1234,-1.1218,-1.1212,-1.1199,-1.1183,-1.1166,-1.1154,-1.1137,-1.1111,-1.1106,-1.11,-1.1098,-1.1097,-1.1094,-1.108,-1.1078,-1.1109,-1.1109,-1.1109,0,0,-1.132,-1.1306,-1.1295,-1.1269,-1.1257,-1.1239,-1.1244,-1.1225,-1.1212,-1.1209,-1.1185,-1.1175,-1.1158,-1.1133,-1.1121,-1.1124,-1.1085,-1.1095,-1.1094,-1.1092,-1.1079,-1.1076,-1.1073,-1.1108,-1.1108,-1.1109,0,0,-1.1298,-1.1286,-1.1266,-1.1254,-1.1236,-1.1228,-1.1223,-1.1205,-1.1198,-1.1175,-1.1172,-1.1157,-1.1126,-1.1114,-1.1104,-1.1079,-1.1077,-1.1074,-1.1064,-1.1051,-1.1048,-1.1046,-1.1037,-1.1034,-1.1071,-1.1071,-1.1071,0,-1.1291,-1.1264,-1.1257,-1.1238,-1.1227,-1.1224,-1.1204,-1.1193,-1.117,-1.1163,-1.1166,-1.1129,-1.1117,-1.1089,-1.1083,-1.1075,-1.107,-1.1075,-1.1049,-1.1047,-1.1045,-1.1036,-1.1033,-1.1071,-1.1071,-1.1071,-1.1071,0,-1.1257,-1.1239,-1.1226,-1.1204,-1.1191,-1.1172,-1.1162,-1.1151,-1.1147,-1.1139,-1.1115,-1.1101,-1.1081,-1.1075,-1.1071,-1.1047,-1.1049,-1.1051,-1.1057,-1.1041,-1.1033,-1.103,-1.1071,-1.1071,-1.1071,-1.1071,0,0,-1.1232,-1.1208,-1.1203,-1.1193,-1.1174,-1.1159,-1.1141,-1.1122,-1.1112,-1.1097,-1.1081,-1.1057,-1.1059,-1.1047,-1.1042,-1.1031,-1.1013,-1.1034,-1.1034,-1.1031,-1.0986,-1.0984,-1.098,-1.1012,-1.1011,-1.1011,-1.0987,0,-1.1208,-1.1174,-1.1167,-1.1138,-1.1122,-1.1119,-1.1103,-1.109,-1.1082,-1.1067,-1.1059,-1.1041,-1.1045,-1.1038,-1.1027,-1.1017,-1.1003,-1.1019,-1.0997,-1.0997,-1.1001,-1.0976,-1.0974,-1.0952,-1.0984,-1.0983,-1.0983,0,-1.1174,-1.1159,-1.1128,-1.1112,-1.1105,-1.109,-1.1073,-1.1058,-1.1044,-1.1039,-1.1027,-1.1023,-1.1005,-1.1013,-1.0987,-1.0998,-1.0989,-1.0983,-1.0982,-1.0979,-1.0988,-1.0972,-1.0945,-1.0942,-1.0978,-1.0978,-1.0979,0,-1.1159,-1.1131,-1.1109,-1.1101,-1.1081,-1.1071,-1.1063,-1.1049,-1.1038,-1.1023,-1.1016,-1.0999,-1.099,-1.0977,-1.0969,-1.0976,-1.0944,-1.0952,-1.094,-1.094,-1.0932,-1.0933,-1.0903,-1.0928,-1.0928,-1.0928,-1.0928,0,-1.1132,-1.1114,-1.1102,-1.1088,-1.1068,-1.1061,-1.1041,-1.1032,-1.102,-1.1005,-1.1003,-1.0989,-1.098,-1.0965,-1.096,-1.0939,-1.0935,-1.0931,-1.0929,-1.0931,-1.0931,-1.0924,-1.0925,-1.0927,-1.0927,-1.0927,-1.0927,0,-1.1111,-1.1102,-1.1079,-1.1062,-1.1058,-1.1044,-1.103,-1.1017,-1.101,-1.0991,-1.0987,-1.0975,-1.0958,-1.095,-1.0928,-1.0924,-1.0901,-1.0901,-1.0906,-1.0906,-1.0894,-1.0895,-1.0858,-1.0853,-1.0881,-1.0881,-1.0881,0,-1.1094,-1.108,-1.1063,-1.1052,-1.1044,-1.1028,-1.1017,-1.101,-1.0999,-1.0982,-1.0971,-1.0954,-1.094,-1.0912,-1.0902,-1.0886,-1.0885,-1.0873,-1.0883,-1.0885,-1.0885,-1.0886,-1.0884,-1.0871,-1.0871,-1.0871,-1.0871,0,-1.1065,-1.1062,-1.1046,-1.103,-1.1017,-1.1004,-1.0991,-1.0983,-1.0974,-1.0962,-1.0944,-1.0933,-1.0912,-1.0895,-1.0878,-1.087,-1.0869,-1.0868,-1.0865,-1.0865,-1.0869,-1.0867,-1.0901,-1.0869,-1.0869,-1.0869,-1.0869,-1.0869,-1.1046,-1.1033,-1.1019,-1.1002,-1.0992,-1.098,-1.0967,-1.0959,-1.0944,-1.0926,-1.0923,-1.0904,-1.0891,-1.0869,-1.086,-1.0846,-1.0849,-1.0843,-1.0842,-1.0841,-1.084,-1.0872,-1.0843,-1.0843,-1.0843,-1.0843,-1.0843,0,-1.1016,-1.1007,-1.0992,-1.0974,-1.0961,-1.0962,-1.0948,-1.0937,-1.0921,-1.0909,-1.0895,-1.0875,-1.0859,-1.0849,-1.0832,-1.0823,-1.0822,-1.0819,-1.0819,-1.0818,-1.0839,-1.0843,-1.082,-1.082,-1.082,-1.082,-1.082,-1.082,-1.0999,-1.0978,-1.0974,-1.0948,-1.0939,-1.0921,-1.0913,-1.0902,-1.0893,-1.0871,-1.0857,-1.0851,-1.084,-1.0823,-1.0808,-1.0806,-1.08,-1.0797,-1.0794,-1.0814,-1.0816,-1.0818,-1.0823,-1.0795,-1.0795,-1.0774,-1.0774,-1.0774]},{"header":{"parameterUnit":"m.s-1","parameterCategory":1,"la1":30.2991,"la2":30.254,"lo1":-89.0895,"lo2":-89.0444,"dy":0.0017,"dx":0.0017,"nx":28,"ny":28,"refTime":"2024-05-24T09:00:00:Z","depth":0,"parameterNumber":3,"parameterNumberName":"V-component_of_WINDS"},"data":[0,0,0,0,0,0,0,0,0,0,0,0,0,0,0,0,0,0,0,0,0,0,0,0,0,0,0,0,0,0,0,0,0,0,0,0,0,0,0,0,0,0,0,0,0,0,0,0,0,0,0,0,0,0,0,0,0,0,5.1173,5.1173,0,5.1173,5.1173,5.1173,5.1134,5.1133,5.1132,5.1131,5.1131,5.1132,5.1133,0,0,0,0,0,0,0,0,0,0,0,0,0,5.114,5.1141,5.1173,5.1173,5.1173,5.1173,5.1173,5.1173,5.1134,5.1133,5.1132,5.113,5.113,5.1132,5.1133,0,0,0,0,0,0,0,0,0,0,0,0,0,5.1149,5.1141,5.1173,5.1154,5.1152,5.1173,5.1173,5.1173,5.1134,5.1133,5.1131,5.113,5.113,5.1131,5.1133,5.1172,0,0,5.1137,5.1138,0,0,0,0,0,0,0,0,5.1148,5.115,5.1157,5.1155,5.1153,5.1152,5.1161,5.1173,5.1135,5.1141,5.1131,5.1129,5.1139,5.114,5.1143,5.1172,5.1172,5.1137,5.1138,5.1139,5.1139,0,0,0,0,0,0,0,5.1148,5.115,5.1173,5.1157,5.1155,5.1145,5.1145,5.1163,5.1149,5.114,5.1138,5.1138,5.1138,5.1142,5.1143,5.1172,5.1137,5.1139,5.1139,5.114,5.1234,5.1236,0,0,0,0,0,0,5.115,5.1149,5.1173,5.1173,5.1147,5.1147,5.1146,5.1154,5.1148,5.1146,5.1139,5.1136,5.114,5.1141,5.1143,5.1188,5.1139,5.114,5.1141,5.1233,5.1235,5.1236,0,0,0,0,0,0,5.1149,5.1152,5.1173,5.1161,5.1162,5.1149,5.1158,5.1155,5.1158,5.1148,5.1145,5.1146,5.1139,5.1141,5.1165,5.1188,5.1141,5.1142,5.1231,5.1233,5.1236,5.128,0,0,0,0,0,0,5.1148,5.1152,5.1167,5.1161,5.1163,5.1196,5.1159,5.1156,5.1161,5.1157,5.1153,5.1151,5.1138,5.1163,5.1167,5.1189,5.1143,5.1229,5.1232,5.1235,5.1277,5.1284,5.129,0,0,0,0,0,5.1147,5.118,5.1168,5.1171,5.1182,5.1197,5.1199,5.1183,5.1163,5.1178,5.1171,5.1151,5.1185,5.1166,5.117,5.1193,5.1227,5.1231,5.1235,5.1274,5.1283,5.129,0,0,0,0,0,0,5.1189,5.1179,5.1166,5.1197,5.1198,5.1191,5.1209,5.1193,5.12,5.1195,5.1175,5.1175,5.1203,5.12,5.118,5.1231,5.1202,5.1207,5.1231,5.124,5.1246,5.1246,5.1144,0,0,0,0,0,5.1202,5.1215,5.1206,5.1235,5.1236,5.1223,5.1229,5.1216,5.1217,5.1217,5.1212,5.1213,5.1224,5.1232,5.1241,5.1276,5.1275,5.1294,5.1301,5.1306,5.131,5.1329,5.1337,5.1249,5.1249,5.1249,0,0,5.1229,5.1225,5.1234,5.1243,5.1242,5.1257,5.1223,5.124,5.1251,5.122,5.1243,5.1239,5.1239,5.1269,5.1282,5.1268,5.1335,5.1311,5.1316,5.1317,5.1333,5.1342,5.1349,5.1251,5.1251,5.125,0,0,5.1284,5.1283,5.1307,5.1307,5.1307,5.1297,5.1303,5.1298,5.1294,5.1317,5.1294,5.1307,5.1326,5.1327,5.133,5.1386,5.1368,5.139,5.1425,5.1443,5.145,5.1456,5.1476,5.1484,5.1394,5.1394,5.1394,0,5.1318,5.1339,5.1321,5.1339,5.1344,5.1316,5.134,5.1341,5.1344,5.1348,5.1332,5.1355,5.1353,5.1383,5.1397,5.1401,5.1407,5.139,5.1451,5.1456,5.1462,5.1481,5.1488,5.1397,5.1397,5.1396,5.1396,0,5.1379,5.1394,5.1413,5.1417,5.1423,5.1444,5.143,5.1439,5.1426,5.1418,5.1442,5.1439,5.1447,5.1453,5.1441,5.1482,5.1473,5.1454,5.1425,5.1473,5.149,5.1498,5.1401,5.14,5.1399,5.1398,0,0,5.1462,5.1455,5.1462,5.1463,5.1461,5.1472,5.1492,5.15,5.1508,5.1511,5.1527,5.1543,5.1526,5.153,5.1517,5.1533,5.1578,5.1512,5.1512,5.1524,5.1622,5.1636,5.1645,5.1566,5.1567,5.1568,5.1622,0,5.1516,5.1549,5.1534,5.1569,5.1582,5.1556,5.1574,5.1574,5.1568,5.1578,5.1571,5.1583,5.156,5.1561,5.1576,5.1569,5.1597,5.1565,5.1581,5.1581,5.1581,5.1654,5.1668,5.1719,5.1629,5.163,5.1631,0,5.1583,5.1589,5.1625,5.162,5.1625,5.1641,5.1647,5.1657,5.1657,5.1651,5.1655,5.1639,5.1658,5.163,5.1656,5.1635,5.164,5.1638,5.1639,5.164,5.1609,5.1656,5.1735,5.1743,5.1641,5.164,5.164,0,5.1639,5.1656,5.168,5.1681,5.1676,5.1688,5.1686,5.1685,5.169,5.1696,5.1699,5.1707,5.1711,5.1717,5.1704,5.1684,5.1731,5.1702,5.1727,5.1728,5.1738,5.1737,5.1819,5.1742,5.1742,5.1742,5.1742,0,5.1701,5.1724,5.1705,5.1719,5.1744,5.1727,5.1752,5.1748,5.1747,5.176,5.1738,5.1751,5.1733,5.1744,5.1733,5.1756,5.1759,5.1754,5.1751,5.1756,5.1757,5.1759,5.1755,5.1744,5.1743,5.1743,5.1743,0,5.1768,5.1756,5.178,5.1773,5.1772,5.1791,5.1785,5.1798,5.179,5.1807,5.181,5.1798,5.181,5.1797,5.1808,5.1801,5.1832,5.1824,5.1832,5.183,5.1855,5.1853,5.1941,5.1951,5.1868,5.1869,5.187,0,5.1808,5.1825,5.182,5.1827,5.1827,5.1839,5.1845,5.1828,5.1835,5.1836,5.1849,5.1859,5.1866,5.1887,5.1879,5.1888,5.1879,5.1909,5.188,5.1885,5.1879,5.1878,5.188,5.1915,5.1916,5.1917,5.1918,0,5.1881,5.1874,5.1883,5.189,5.1897,5.1901,5.1904,5.1912,5.1894,5.1903,5.1915,5.192,5.1932,5.1942,5.1948,5.1946,5.1929,5.1927,5.1933,5.1938,5.1942,5.194,5.1848,5.1925,5.1924,5.1924,5.1923,5.1923,5.1935,5.1949,5.1948,5.1958,5.1959,5.1962,5.1974,5.1967,5.1977,5.1985,5.1974,5.1989,5.1988,5.1995,5.1995,5.2007,5.1994,5.2003,5.2005,5.2007,5.2011,5.1941,5.2008,5.2007,5.2007,5.2007,5.2007,0,5.2007,5.2004,5.2014,5.2019,5.2027,5.201,5.2013,5.2021,5.2034,5.2035,5.2042,5.2056,5.2066,5.2059,5.2067,5.2077,5.207,5.208,5.2079,5.2079,5.2022,5.2016,5.2086,5.2086,5.2086,5.2086,5.2086,5.2086,5.2045,5.2068,5.206,5.2083,5.208,5.2094,5.2097,5.21,5.21,5.2117,5.2125,5.212,5.2117,5.2125,5.2134,5.2131,5.2135,5.2148,5.2143,5.2091,5.2083,5.2075,5.2069,5.215,5.215,5.2199,5.2199,5.22]}]]